Flight Track Log - Related Links

Times and Time Zones

All times are in EDT time to prevent confusion due to time zone crossing. See the UAL1897 flight status page for this flight to view local times or setup timezone preferences in your user account.

Time Position Orientation Groundspeed Altitude Reporting Facility
EDT Latitude Longitude Course Direction KTS MPH feet Rate Location/Type
Sat 12:09:56 PM 41.9446 -87.9061 197° South 168 193 1,300  Level FlightAware ADS-B
Sat 12:10:07 PM 41.9359 -87.9077 182° South 178 205 1,600 1,350 Climbing FlightAware ADS-B
Sat 12:10:36 PM 41.9091 -87.9059 178° South 230 265 2,200 1,680 Climbing FlightAware ADS-B
Sat 12:10:57 PM 41.8884 -87.9054 179° South 250 288 3,000 3,300 Climbing FlightAware ADS-B
Sat 12:11:16 PM 41.8641 -87.9044 177° South 247 284 4,400 4,429 Climbing FlightAware ADS-B
Sat 12:11:39 PM 41.8401 -87.9023 177° South 250 288 6,100 3,659 Climbing FlightAware ADS-B
Sat 12:11:57 PM 41.8161 -87.9009 179° South 262 302 6,900 3,405 Climbing FlightAware ADS-B
Sat 12:12:16 PM 41.7923 -87.9042 191° South 263 303 8,200 3,720 Climbing FlightAware ADS-B
Sat 12:12:47 PM 41.7564 -87.9161 194° South 276 318 10,000 4,765 Climbing FlightAware ADS-B
Sat 12:12:50 PM 41.7540 -87.9169 195° South 266 306 10,900 3,750 Climbing FlightAware ADS-B
Sat 12:13:27 PM 41.7057 -87.9321 194° South 279 321 12,500 2,261 Climbing FlightAware ADS-B
Sat 12:13:59 PM 41.6621 -87.9458 193° South 311 358 13,500 1,714 Climbing FlightAware ADS-B
Sat 12:14:37 PM 41.6025 -87.9646 194° South 367 422 14,500 2,260 Climbing FlightAware ADS-B
Sat 12:15:16 PM 41.5376 -87.9859 194° South 388 447 16,400 2,914 Climbing FlightAware ADS-B
Sat 12:15:47 PM 41.4905 -88.0018 194° South 398 458 17,900 2,951 Climbing FlightAware ADS-B
Sat 12:16:17 PM 41.4274 -88.0228 194° South 405 466 19,400 2,800 Climbing FlightAware ADS-B
Sat 12:16:47 PM 41.3720 -88.0414 195° South 414 476 20,700 2,696 Climbing FlightAware ADS-B
Sat 12:17:26 PM 41.2993 -88.0664 195° South 424 488 22,500 2,562 Climbing FlightAware ADS-B
Sat 12:18:16 PM 41.2014 -88.0983 192° South 434 499 24,500 2,242 Climbing FlightAware ADS-B
Sat 12:18:57 PM 41.1206 -88.1205 192° South 447 514 25,900 2,074 Climbing FlightAware ADS-B
Sat 12:19:37 PM 41.0396 -88.1433 192° South 456 525 27,300 2,057 Climbing FlightAware ADS-B
Sat 12:20:07 PM 40.9761 -88.1613 192° South 465 535 28,300 1,800 Climbing FlightAware ADS-B
Sat 12:20:47 PM 40.8922 -88.1854 192° South 476 548 29,400 1,890 Climbing FlightAware ADS-B
Sat 12:21:20 PM 40.8912 -88.1857 192° South 483 556 30,600 1,982 Climbing FlightAware ADS-B
Sat 12:22:39 PM 40.6454 -88.2557 192° South 490 564 33,100 1,773 Climbing FlightAware ADS-B
Sat 12:23:32 PM 40.5503 -88.2822 192° South 485 558 34,500 1,670 Climbing Chicago Center
Sat 12:24:34 PM 40.4219 -88.3183 192° South 479 551 36,300 1,548 Climbing Chicago Center
Sat 12:25:36 PM 40.2939 -88.3572 193° South 475 547 37,700 823 Climbing Chicago Center
Sat 12:26:38 PM 40.1600 -88.4158 198° South 472 543 38,000 145 Climbing Chicago Center
Sat 12:27:40 PM 40.0364 -88.4711 199° South 471 542 38,000  Level Chicago Center
Sat 12:28:41 PM 39.9117 -88.5244 198° South 470 541 38,000  Level Chicago Center
Sat 12:29:31 PM 39.8125 -88.5669 198° South 469 540 38,000  Level Kansas City Center
Sat 12:30:32 PM 39.6878 -88.6214 199° South 474 545 38,000  Level Kansas City Center
Sat 12:31:32 PM 39.5647 -88.6742 198° South 471 542 38,000  Level Kansas City Center
Sat 12:32:33 PM 39.4161 -88.7372 198° South 469 540 38,000  Level Kansas City Center
Sat 12:33:37 PM 39.2958 -88.7917 199° South 461 531 38,000  Level Kansas City Center
Sat 12:34:39 PM 39.1733 -88.8431 198° South 461 531 38,000  Level Kansas City Center
Sat 12:35:39 PM 39.0494 -88.8956 198° South 462 532 38,000  Level Kansas City Center
Sat 12:36:40 PM 38.9258 -88.9469 198° South 464 534 38,000  Level Kansas City Center
Sat 12:37:43 PM 38.8031 -88.9978 198° South 464 534 38,000  Level Kansas City Center
Sat 12:38:44 PM 38.6831 -89.0492 198° South 461 531 38,000  Level Kansas City Center
Sat 12:39:46 PM 38.5408 -89.1081 198° South 460 529 38,000  Level Kansas City Center
Sat 12:40:46 PM 38.4211 -89.1581 198° South 458 527 38,000  Level Kansas City Center
Sat 12:41:47 PM 38.2925 -89.1903 191° South 454 522 38,000  Level Kansas City Center
Sat 12:42:49 PM 38.1678 -89.2200 191° South 454 522 38,000  Level Kansas City Center
Sat 12:43:52 PM 38.0433 -89.2517 191° South 454 522 38,000  Level Kansas City Center
Sat 12:44:53 PM 37.9194 -89.2842 192° South 454 522 38,000  Level Kansas City Center
Sat 12:45:54 PM 37.8006 -89.3117 190° South 449 517 38,000  Level Kansas City Center
Sat 12:46:55 PM 37.6756 -89.3419 191° South 450 518 38,000  Level Kansas City Center
Sat 12:47:58 PM 37.5517 -89.3728 191° South 452 520 38,000  Level Kansas City Center
Sat 12:48:59 PM 37.4019 -89.4097 191° South 454 522 38,000  Level Kansas City Center
Sat 12:50:00 PM 37.2767 -89.4425 192° South 454 522 38,000  Level Kansas City Center
Sat 12:51:00 PM 37.1519 -89.4739 191° South 455 524 38,000  Level Kansas City Center
Sat 12:52:05 PM 37.0283 -89.5050 191° South 455 524 38,000  Level Kansas City Center
Sat 12:53:25 PM 36.8561 -89.5481 191° South 455 524 38,000  Level Memphis Center
Sat 12:54:27 PM 36.7325 -89.5775 191° South 455 524 38,000  Level Memphis Center
Sat 12:55:28 PM 36.6100 -89.6083 191° South 455 524 38,000  Level Memphis Center
Sat 12:56:30 PM 36.4883 -89.6375 191° South 454 522 38,000  Level Memphis Center
Sat 12:57:32 PM 36.3425 -89.6731 191° South 454 522 38,000  Level Memphis Center
Sat 12:58:33 PM 36.2217 -89.7008 191° South 451 519 38,000 195 Level Memphis Center
Sat 12:59:35 PM 36.1008 -89.7303 191° South 450 518 38,400 629 Climbing Memphis Center
Sat 01:00:37 PM 35.9814 -89.7586 191° South 444 511 39,300 780 Climbing Memphis Center
Sat 01:01:38 PM 35.8611 -89.7850 190° South 443 510 40,000 341 Climbing Memphis Center
Sat 01:02:40 PM 35.7558 -89.8622 211° Southwest 451 519 40,000  Level Memphis Center
Sat 01:03:42 PM 35.6456 -89.9892 223° Southwest 449 517 40,000  Level Memphis Center
Sat 01:04:43 PM 35.5506 -90.0836 219° Southwest 448 516 40,000  Level Memphis Center
Sat 01:05:45 PM 35.4436 -90.1581 210° Southwest 447 514 40,000  Level Memphis Center
Sat 01:06:47 PM 35.3306 -90.2258 206° Southwest 450 518 40,000  Level Memphis Center
Sat 01:07:48 PM 35.2153 -90.2922 205° Southwest 455 524 40,000  Level Memphis Center
Sat 01:08:50 PM 35.1044 -90.3575 206° Southwest 451 519 40,000  Level Memphis Center
Sat 01:09:52 PM 34.9714 -90.4358 206° Southwest 450 518 40,000  Level Memphis Center
Sat 01:10:53 PM 34.8603 -90.4997 205° Southwest 446 513 40,000  Level Memphis Center
Sat 01:11:55 PM 34.7486 -90.5650 206° Southwest 446 513 40,000  Level Memphis Center
Sat 01:12:57 PM 34.6369 -90.6289 205° Southwest 446 513 40,000  Level Memphis Center
Sat 01:13:59 PM 34.5261 -90.6933 206° Southwest 446 513 40,000  Level Memphis Center
Sat 01:15:00 PM 34.4156 -90.7572 205° Southwest 445 512 40,000  Level Memphis Center
Sat 01:16:02 PM 34.2825 -90.8339 205° Southwest 444 511 40,000  Level Memphis Center
Sat 01:17:04 PM 34.1719 -90.8958 205° Southwest 443 510 40,000  Level Memphis Center
Sat 01:18:05 PM 34.0633 -90.9589 206° Southwest 438 504 40,000  Level Memphis Center
Sat 01:19:07 PM 33.9531 -91.0217 205° Southwest 438 504 40,000  Level Memphis Center
Sat 01:20:09 PM 33.8422 -91.0839 205° Southwest 438 504 40,000 -726 Level Memphis Center
Sat 01:21:11 PM 33.7203 -91.1533 205° Southwest 439 505 38,500 -1,742 Descending Memphis Center
Sat 01:22:13 PM 33.6114 -91.2131 205° Southwest 437 503 36,400 -1,707 Descending Memphis Center
Sat 01:23:14 PM 33.4989 -91.2761 205° Southwest 442 509 35,000 -1,366 Descending Memphis Center
Sat 01:24:16 PM 33.3811 -91.3428 205° Southwest 462 532 33,600 -1,403 Descending Memphis Center
Sat 01:25:18 PM 33.2614 -91.4103 205° Southwest 474 545 32,100 -1,548 Descending Memphis Center
Sat 01:26:20 PM 33.1178 -91.4908 205° Southwest 474 545 30,400 -1,576 Descending Memphis Center
Sat 01:26:57 PM 33.0453 -91.5297 204° Southwest 476 548 29,500 -1,636 Descending Memphis Center
Sat 01:27:59 PM 32.9256 -91.5950 205° Southwest 477 549 27,700 -1,703 Descending Memphis Center
Sat 01:28:11 PM 32.9036 -91.6081 207° Southwest 477 549 27,400 -1,459 Descending Memphis Center
Sat 01:29:13 PM 32.7886 -91.6706 205° Southwest 467 537 25,900 -1,415 Descending Memphis Center
Sat 01:30:14 PM 32.6817 -91.7306 205° Southwest 446 513 24,500 -1,475 Descending Memphis Center
Sat 01:31:15 PM 32.5717 -91.7928 205° Southwest 422 486 22,900 -1,500 Descending Fort Worth Center
Sat 01:32:18 PM 32.4669 -91.8481 204° Southwest 412 474 21,400 -1,584 Descending Fort Worth Center
Sat 01:33:20 PM 32.3436 -91.9156 205° Southwest 408 470 19,600 -1,597 Descending Fort Worth Center
Sat 01:34:22 PM 32.2436 -91.9692 204° Southwest 398 458 18,100 -1,403 Descending Fort Worth Center
Sat 01:35:24 PM 32.1492 -92.0222 205° Southwest 379 436 16,700 -1,307 Descending Fort Worth Center
Sat 01:36:03 PM 32.0919 -92.0544 206° Southwest 380 437 15,900 -1,565 Descending Houston Center
Sat 01:36:33 PM 32.0344 -92.0836 203° Southwest 372 428 14,900 -1,714 Descending Houston Center
Sat 01:36:52 PM 32.0042 -92.0989 203° Southwest 372 428 14,500 -938 Descending Houston Center
Sat 01:37:05 PM 31.9975 -92.1047 217° Southwest 373 429 14,400 -1,500 Descending Houston Center
Sat 01:37:52 PM 31.9094 -92.1522 205° Southwest 362 417 13,000 -1,258 Descending Houston Center
Sat 01:38:07 PM 31.9058 -92.1536 198° South 364 419 13,100 -764 Climbing Houston Center
Sat 01:38:47 PM 31.8306 -92.1942 205° Southwest 350 403 12,300 -1,065 Descending Houston Center
Sat 01:39:09 PM 31.8025 -92.2094 205° Southwest 346 398 12,000 -900 Descending Houston Center
Sat 01:39:47 PM 31.7561 -92.2378 207° Southwest 303 349 11,400 -774 Descending Houston Center
Sat 01:40:11 PM 31.7383 -92.2675 235° Southwest 306 352 11,200 -984 Descending Houston Center
Sat 01:40:48 PM 31.7158 -92.3200 243° Southwest 271 312 10,400 -1,065 Descending Houston Center
Sat 01:41:13 PM 31.7028 -92.3478 241° Southwest 282 325 10,100 -1,475 Descending Houston Center
Sat 01:41:49 PM 31.6772 -92.3994 240° Southwest 266 306 8,900 -1,742 Descending Houston Center
Sat 01:42:15 PM 31.6667 -92.4219 241° Southwest 269 310 8,300 -1,700 Descending Houston Center
Sat 01:42:49 PM 31.6442 -92.4711 242° Southwest 258 297 7,200 -1,645 Descending Houston Center
Sat 01:43:17 PM 31.6331 -92.4950 241° Southwest 260 299 6,600 -1,574 Descending Houston Center
Sat 01:43:50 PM 31.6094 -92.5478 242° Southwest 248 285 5,600 -1,714 Descending Houston Center
Sat 01:44:20 PM 31.5958 -92.5767 241° Southwest 243 280 4,800 -1,700 Descending Houston Center
Sat 01:44:50 PM 31.5822 -92.6089 244° Southwest 219 252 3,900 -1,355 Descending Houston Center
Sat 01:45:22 PM 31.5692 -92.6403 244° Southwest 225 259 3,400 -1,475 Descending Houston Center
Sat 01:45:51 PM 31.5458 -92.6611 217° Southwest 204 235 2,400 -1,258 Descending Houston Center
Sat 01:46:24 PM 31.5225 -92.6575 172° South 209 241 2,100 -400 Descending Houston Center
Sat 01:46:51 PM 31.4994 -92.6553 175° South 175 201 2,000  Descending Houston Center
Sat 01:47:26 PM 31.4756 -92.6503 170° South 186 214 2,100  Climbing Houston Center
Sat 01:47:52 PM 31.4486 -92.6478 175° South 165 190 2,000  Descending Houston Center
Sat 01:48:28 PM 31.4314 -92.6386 156° South 173 199 2,100 -197 Climbing Houston Center
Sat 01:48:53 PM 31.4092 -92.6219 147° Southeast 167 192 1,800 -774 Descending Houston Center
Sat 01:49:30 PM 31.3858 -92.5994 141° Southeast 171 197 1,300 -900 Descending Houston Center
Sat 01:49:53 PM 31.3714 -92.5886 147° Southeast 163 188 900 -677 Descending Houston Center
Sat 01:50:32 PM 31.3511 -92.5703 142° Southeast 164 189 600 -689 Descending Houston Center
Sat 01:50:54 PM 31.3381 -92.5600 146° Southeast 149 171 200 -387 Descending Houston Center
Sat 01:51:34 PM 31.3228 -92.5467 143° Southeast 156 180 200  Level Houston Center

Login

Don't have an account? Register now (free) for customized features, flight alerts, and more!